, NV

(GMT )
Eureka Airport

Weather History for K05U - October, 2012

Change the Weather History Date:

Friday, October 12, 2012

  Actual Average Record
Temperature  
Mean Temperature 47 °F -  
Max Temperature 62 °F - - ()
Min Temperature 32 °F - - ()
Degree Days  
Heating Degree Days 18    
Moisture  
Dew Point -    
Average Humidity    
Maximum Humidity    
Minimum Humidity    
Precipitation  
Precipitation 0.00 in - - ()
Sea Level Pressure  
Sea Level Pressure 30.06 in    
Wind  
Wind Speed 4 mph ()    
Max Wind Speed 10 mph    
Max Gust Speed 17 mph    
Visibility 9.9 miles    
Events      
Averages and records for this station are not official NWS values.
T = Trace of Precipitation, MM = Missing Value Source: Averaged Metar Reports

Daily Weather History Graph

Daily Weather History Graph

Search for Another Location

Airport or City:

Astronomy

Oct. 12, 2012 Rise Set
Actual Time 6:51 AM PDT 6:08 PM PDT
Civil Twilight 6:24 AM PDT 6:35 PM PDT
Nautical Twilight 5:53 AM PDT 7:06 PM PDT
Astronomical Twilight 5:22 AM PDT 7:37 PM PDT
Moon 3:39 AM PDT (10/12) 4:20 PM PDT (10/12)
Length of Visible Light 12h 10m
Length of Day
11h 16m
Waning Crescent, 10% of the Moon is Illuminated
Oct 12
Waning Crescent
Oct 15
New
Oct 21
First Quarter
Oct 29
Full
Nov 6
Last Quarter

Hourly Weather History & Observations

Time (PDT) Temp. Windchill Dew Point Humidity Pressure Visibility Wind Dir Wind Speed Gust Speed Precip Events Conditions
12:55 AM 44.6 °F 41.4 °F - N/A% 30.05 in 10.0 mi South 5.8 mph - N/A   Overcast
1:15 AM 44.6 °F 41.4 °F - N/A% 30.03 in 10.0 mi SSE 5.8 mph - N/A   Scattered Clouds
1:35 AM 44.6 °F 41.4 °F - N/A% 30.03 in 10.0 mi SSE 5.8 mph - N/A   Clear
1:55 AM 41.0 °F 39.0 °F - N/A% 30.02 in 10.0 mi NW 3.5 mph - N/A   Clear
2:15 AM 39.2 °F 35.9 °F - N/A% 30.04 in 10.0 mi ESE 4.6 mph - N/A   Clear
2:35 AM 39.2 °F - - N/A% 30.04 in 10.0 mi Calm Calm - N/A   Clear
2:55 AM 39.2 °F 37.0 °F - N/A% 30.04 in 10.0 mi SSE 3.5 mph - N/A   Clear
3:15 AM 39.2 °F 37.0 °F - N/A% 30.04 in 10.0 mi SW 3.5 mph - N/A   Clear
3:35 AM 39.2 °F 34.2 °F - N/A% 30.04 in 10.0 mi ESE 6.9 mph - N/A   Clear
3:55 AM 39.2 °F - - N/A% 30.03 in 10.0 mi Calm Calm - N/A   Mostly Cloudy
4:15 AM 37.4 °F 32.1 °F - N/A% 30.03 in 10.0 mi SW 6.9 mph - N/A   Mostly Cloudy
4:35 AM 37.4 °F 32.8 °F - N/A% 30.03 in 10.0 mi SW 5.8 mph - N/A   Clear
4:55 AM 37.4 °F - - N/A% 30.03 in 10.0 mi Calm Calm - N/A   Partly Cloudy
5:15 AM 37.4 °F 32.1 °F - N/A% 30.03 in 10.0 mi North 6.9 mph - N/A   Partly Cloudy
5:35 AM 35.6 °F - - N/A% 30.04 in 10.0 mi Calm Calm - N/A   Clear
5:55 AM 35.6 °F - - N/A% 30.05 in 10.0 mi Calm Calm - N/A   Clear
6:15 AM 33.8 °F - - N/A% 30.04 in 10.0 mi Calm Calm - N/A   Clear
6:35 AM 33.8 °F 28.6 °F - N/A% 30.05 in 10.0 mi ESE 5.8 mph - N/A   Clear
6:55 AM 32.0 °F 28.7 °F - N/A% 30.05 in 10.0 mi SE 3.5 mph - N/A   Clear
7:15 AM 33.8 °F 30.8 °F - N/A% 30.04 in 10.0 mi South 3.5 mph - N/A   Clear
7:55 AM 32.0 °F 27.5 °F - N/A% 30.06 in 10.0 mi SSE 4.6 mph - N/A   Clear
8:15 AM 35.6 °F 31.7 °F - N/A% 30.05 in 10.0 mi South 4.6 mph - N/A   Clear
8:35 AM 35.6 °F 32.8 °F - N/A% 30.05 in 10.0 mi South 3.5 mph - N/A   Clear
9:15 AM 41.0 °F 37.1 °F - N/A% 30.06 in 10.0 mi SSW 5.8 mph - N/A   Clear
9:35 AM 44.6 °F 41.4 °F - N/A% 30.06 in 10.0 mi SW 5.8 mph - N/A   Clear
9:55 AM 44.6 °F 42.2 °F - N/A% 30.05 in 10.0 mi SSW 4.6 mph - N/A   Clear
10:15 AM 46.4 °F 45.2 °F - N/A% 30.06 in 10.0 mi SSE 3.5 mph - N/A   Clear
10:55 AM 50.0 °F - - N/A% 30.05 in 10.0 mi Calm Calm - N/A   Clear
11:35 AM 53.6 °F - - N/A% 30.06 in 10.0 mi Calm Calm - N/A   Clear
12:35 PM 57.2 °F - - N/A% 30.05 in 10.0 mi Calm Calm - N/A   Partly Cloudy
1:15 PM 59.0 °F - - N/A% 30.04 in 10.0 mi Calm Calm - N/A   Partly Cloudy
1:55 PM 62.6 °F - - N/A% 30.03 in 10.0 mi Calm Calm - N/A   Scattered Clouds
2:15 PM 60.8 °F - - N/A% 30.02 in 10.0 mi WNW 5.8 mph - N/A   Partly Cloudy
2:35 PM 62.6 °F - - N/A% 30.02 in 10.0 mi Calm Calm - N/A   Partly Cloudy
2:55 PM 62.6 °F - - N/A% 30.02 in 10.0 mi NNW 8.1 mph - N/A   Partly Cloudy
3:15 PM 59.0 °F - - N/A% 30.02 in 10.0 mi NW 6.9 mph - N/A   Mostly Cloudy
3:35 PM 59.0 °F - - N/A% 30.02 in 10.0 mi West 9.2 mph - N/A   Mostly Cloudy
4:15 PM 62.6 °F - - N/A% 30.02 in 10.0 mi West 4.6 mph - N/A   Overcast
4:55 PM 60.8 °F - - N/A% 30.02 in 10.0 mi North 6.9 mph - N/A   Overcast
5:15 PM 59.0 °F - - N/A% 30.03 in 10.0 mi North 4.6 mph - N/A   Overcast
5:35 PM 59.0 °F - - N/A% 30.03 in 10.0 mi NW 4.6 mph - N/A   Overcast
6:15 PM 59.0 °F - - N/A% 30.04 in 10.0 mi NW 9.2 mph 16.1 mph N/A   Overcast
6:35 PM 57.2 °F - - N/A% 30.05 in 10.0 mi WNW 6.9 mph - N/A   Mostly Cloudy
6:55 PM 55.4 °F - - N/A% 30.06 in 10.0 mi WNW 8.1 mph - N/A   Partly Cloudy
7:15 PM 55.4 °F - - N/A% 30.07 in 10.0 mi NW 9.2 mph - N/A   Clear
7:35 PM 53.6 °F - - N/A% 30.08 in 10.0 mi WNW 8.1 mph - N/A   Clear
7:55 PM 53.6 °F - - N/A% 30.09 in 10.0 mi WNW 6.9 mph - N/A   Partly Cloudy
8:15 PM 55.4 °F - - N/A% 30.10 in 10.0 mi NNW 6.9 mph - N/A   Mostly Cloudy
8:35 PM 55.4 °F - - N/A% 30.12 in 10.0 mi ESE 3.5 mph - N/A   Overcast
9:35 PM 55.4 °F - - N/A% 30.17 in 10.0 mi NNW 10.4 mph 17.3 mph N/A   Overcast
9:55 PM 50.0 °F - - N/A% 30.18 in 4.0 mi NNW 4.6 mph - N/A   Overcast
10:15 PM 48.2 °F - - N/A% 30.18 in 10.0 mi North 5.8 mph - N/A   Mostly Cloudy
10:35 PM 48.2 °F - - N/A% 30.18 in 10.0 mi East 3.5 mph - N/A   Mostly Cloudy
10:55 PM 48.2 °F - - N/A% 30.18 in 10.0 mi SSE 6.9 mph - N/A   Partly Cloudy
11:15 PM 46.4 °F 44.3 °F - N/A% 30.17 in 10.0 mi South 4.6 mph - N/A   Mostly Cloudy
11:35 PM 46.4 °F 43.5 °F - N/A% 30.18 in 10.0 mi SSW 5.8 mph - N/A   Mostly Cloudy